GW3119 Weather Reports


Display with metric or nautical units.
time (UTC)temp
F
wind
direction
speed
MPH
gust
MPH
rain 1hr
in
rain 24hr
in
rain mn
in
humidity
%
barometer
mb
20260510130043 49 252 3.0 11.0 0.00 0.27 0.00 75 1012.3
20260510124548 48 292 4.0 14.0 0.00 0.27 0.00 76 1012.1
20260510123047 47 245 3.0 10.0 0.00 0.27 0.00 78 1011.9
20260510121547 46 238 2.0 12.0 0.00 0.27 0.00 78 1011.9
20260510120045 47 299 4.0 10.0 0.00 0.27 0.00 76 1011.8
20260510114542 46 251 2.0 8.0 0.00 0.27 0.00 79 1011.5
20260510113043 45 292 2.0 8.0 0.00 0.27 0.00 81 1011.3
20260510111546 44 286 4.0 11.0 0.00 0.27 0.00 81 1010.9
20260510110053 44 253 4.0 9.0 0.00 0.27 0.00 87 1010.6
20260510104547 43 258 1.0 6.0 0.00 0.27 0.00 85 1010.2
20260510103050 42 242 4.0 9.0 0.00 0.27 0.00 89 1009.9
20260510101557 41 238 2.0 4.0 0.00 0.27 0.00 92 1009.6
20260510100049 42 237 3.0 6.0 0.00 0.27 0.00 93 1009.3
20260510094551 42 248 3.0 5.0 0.00 0.27 0.00 92 1009.2
20260510093045 43 226 3.0 9.0 0.00 0.27 0.00 92 1008.8
20260510091545 44 240 4.0 8.0 0.00 0.27 0.00 93 1008.7
20260510090053 44 238 4.0 8.0 0.00 0.27 0.00 94 1008.5
20260510084547 44 360 3.0 5.0 0.00 0.27 0.00 96 1008.3
20260510083047 44 237 3.0 5.0 0.00 0.27 0.00 96 1008.2
20260510081545 44 230 1.0 3.0 0.00 0.27 0.00 96 1007.9
20260510080058 45 234 2.0 3.0 0.00 0.27 0.00 97 1007.8
20260510074547 45 234 1.0 3.0 0.00 0.27 0.00 96 1007.4
20260510073050 44 234 2.0 3.0 0.00 0.27 0.00 96 1007.4
20260510071546 45 235 1.0 3.0 0.00 0.27 0.00 96 1007.3
20260510064548 44 231 3.0 7.0 0.00 0.27 0.00 96 1007.4
20260510063045 45 242 3.0 7.0 0.00 0.27 0.00 96 1007.1
20260510061544 45 216 4.0 8.0 0.00 0.27 0.00 96 1007.0
20260510060048 45 240 3.0 9.0 0.00 0.27 0.00 95 1006.9
20260510054542 45 229 6.0 10.0 0.00 0.27 0.00 96 1006.8
20260510053054 45 249 5.0 11.0 0.00 0.27 0.00 96 1006.8
20260510051556 46 221 3.0 8.0 0.00 0.27 0.00 95 1006.4
20260510050052 47 223 2.0 9.0 0.00 0.27 0.00 95 1006.2
20260510044545 47 236 4.0 11.0 0.00 0.27 0.00 96 1006.4
20260510043047 47 235 5.0 10.0 0.00 0.27 0.00 96 1006.1
20260510041553 47 245 6.0 11.0 0.00 0.27 0.00 96 1006.0
20260510040100 46 225 4.0 7.0 0.00 0.27 0.00 96 1005.9
20260510034547 46 219 3.0 6.0 0.00 0.27 0.27 96 1005.7
20260510033054 46 256 2.0 5.0 0.00 0.27 0.27 95 1005.5
20260510031548 47 246 2.0 6.0 0.00 0.27 0.27 95 1005.1
20260510030049 47 243 3.0 11.0 0.00 0.27 0.27 95 1004.8
20260510024541 48 227 4.0 12.0 0.01 0.27 0.27 94 1005.2
20260510023047 49 256 7.0 15.0 0.01 0.27 0.27 93 1005.3
20260510021635 49 255 6.0 14.0 0.01 0.27 0.27 94 1005.3
20260510020058 50 245 8.0 12.0 0.02 0.27 0.27 94 1005.1
20260510014558 50 279 6.0 11.0 0.06 0.26 0.26 95 1004.9
20260510013101 50 238 1.0 8.0 0.15 0.26 0.26 95 1004.8
20260510011552 50 226 7.0 14.0 0.26 0.26 0.26 95 1004.7
20260510010058 50 214 6.0 9.0 0.25 0.25 0.25 95 1004.7
20260510004548 50 251 3.0 16.0 0.20 0.20 0.20 92 1004.6
20260510003054 53 185 17.0 27.0 0.08 0.08 0.08 86 1005.4
20260510001544 54 225 4.0 9.0 0.00 0.00 0.00 81 1002.8
20260510000041 55 175 4.0 12.0 0.00 0.00 0.00 81 1002.6
20260509234551 56 209 5.0 10.0 0.00 0.00 0.00 80 1002.5
20260509233048 57 192 5.0 11.0 0.00 0.00 0.00 79 1002.5
20260509231549 58 169 3.0 10.0 0.00 0.00 0.00 78 1002.7
20260509230049 58 190 1.0 6.0 0.00 0.00 0.00 78 1003.2
20260509224542 58 163 2.0 9.0 0.00 0.00 0.00 78 1003.4
20260509223047 58 191 3.0 9.0 0.00 0.00 0.00 78 1003.4
20260509221543 58 169 2.0 9.0 0.00 0.00 0.00 77 1003.5
20260509220052 59 199 2.0 10.0 0.00 0.00 0.00 76 1003.4
20260509214549 60 160 6.0 11.0 0.00 0.00 0.00 76 1003.5
20260509213102 60 194 6.0 13.0 0.00 0.00 0.00 75 1003.7
20260509211544 61 189 6.0 11.0 0.00 0.00 0.00 73 1003.6
20260509210049 61 138 4.0 11.0 0.00 0.00 0.00 73 1003.5
20260509204543 62 213 7.0 14.0 0.00 0.00 0.00 72 1003.7
20260509203054 62 151 7.0 16.0 0.00 0.00 0.00 71 1004.0
20260509201546 62 165 7.0 17.0 0.00 0.00 0.00 71 1004.1
20260509200052 61 134 7.0 16.0 0.00 0.00 0.00 72 1004.5
20260509194554 62 187 6.0 15.0 0.00 0.00 0.00 74 1004.6
20260509193045 62 171 8.0 14.0 0.00 0.00 0.00 72 1004.7
20260509191604 61 188 8.0 18.0 0.00 0.00 0.00 68 1004.9
20260509190047 61 192 8.0 15.0 0.00 0.00 0.00 70 1005.1
20260509184543 61 219 5.0 16.0 0.00 0.00 0.00 73 1005.2
20260509183055 61 182 8.0 21.0 0.00 0.00 0.00 71 1005.4
20260509181559 60 206 9.0 15.0 0.00 0.00 0.00 72 1005.5
20260509174547 59 203 6.0 14.0 0.00 0.00 0.00 75 1006.1
20260509173057 59 121 6.0 11.0 0.00 0.00 0.00 77 1006.1
20260509171545 59 198 7.0 15.0 0.00 0.00 0.00 75 1006.1
20260509170044 59 213 8.0 15.0 0.00 0.00 0.00 74 1006.0
20260509164551 59 172 4.0 11.0 0.00 0.00 0.00 73 1006.2
20260509163052 58 185 4.0 12.0 0.00 0.00 0.00 74 1006.4
20260509161559 57 173 6.0 13.0 0.00 0.00 0.00 73 1006.8
20260509160056 57 160 4.0 11.0 0.00 0.00 0.00 74 1006.9
20260509154553 56 121 6.0 11.0 0.00 0.00 0.00 74 1007.0
20260509153055 56 169 3.0 9.0 0.00 0.00 0.00 75 1007.2
20260509151541 56 221 2.0 10.0 0.00 0.00 0.00 74 1007.4
20260509150049 55 188 5.0 14.0 0.00 0.00 0.00 76 1007.5
20260509144550 54 144 5.0 12.0 0.00 0.00 0.00 75 1007.4
20260509143043 53 126 5.0 11.0 0.00 0.00 0.00 76 1007.6
20260509141555 52 168 6.0 12.0 0.00 0.00 0.00 76 1007.9
20260509140055 51 186 6.0 13.0 0.00 0.00 0.00 77 1007.9
20260509134552 50 145 6.0 14.0 0.00 0.00 0.00 77 1008.0
20260509133049 49 155 5.0 15.0 0.00 0.00 0.00 76 1008.1
20260509131545 49 195 7.0 13.0 0.00 0.00 0.00 76 1008.2